This demonstration page uses our WeatherBlox Daily Observations layout. Learn more.

Left ArrowRight Arrow

39.51506, -84.39828

Hourly Observations for December 21, 2015

Temp ( °F °C ) Dew Point ( °F °C ) Humidity (%) Winds ( mph kmh ) Pressure ( in mb ) Visibility ( mi km ) Precip ( " mm )
12:15 am 00:15 Clear 47 8.2 22 -5.8 37 37 S 7 11 30.15 1021 10 16.0934 N/A
12:35 am 00:35 Clear 47 8.2 22 -5.5 38 38 SSW 6 9 30.15 1021 10 16.0934 N/A
12:55 am 00:55 Clear 47 8.2 22 -5.3 38 38 S 6 9 30.15 1021 10 16.0934 N/A
1:15 am 01:15 Clear 47 8.2 23 -5.1 39 39 S 8 13 30.15 1021 10 16.0934 N/A
1:35 am 01:35 Clear 49 9.6 24 -4.4 37 37 S 10 17 30.12 1020 10 16.0934 N/A
1:55 am 01:55 Partly Cloudy 49 9.6 23 -5 36 36 S 10 17 30.09 1019 10 16.0934 N/A
2:15 am 02:15 Clear 49 9.6 24 -4.4 37 37 S 9 15 30.12 1020 10 16.0934 N/A
2:35 am 02:35 Clear 49 9.6 23 -4.8 36 36 S 10 17 30.09 1019 10 16.0934 N/A
2:55 am 02:55 Clear 49 9.6 23 -5.1 35 35 SSW 12 19 30.09 1019 10 16.0934 N/A
3:15 am 03:15 Clear 49 9.6 22 -5.3 35 35 SSW 13 20 30.09 1019 10 16.0934 N/A
3:35 am 03:35 Partly Cloudy 49 9.6 21 -5.9 33 33 SSW 13 20 30.09 1019 10 16.0934 N/A
3:55 am 03:55 Cloudy 49 9.6 22 -5.4 35 35 S 9 15 30.09 1019 10 16.0934 N/A
4:15 am 04:15 Partly Cloudy 49 9.6 21 -6 33 33 S 12 19 30.06 1018 10 16.0934 N/A
4:35 am 04:35 Clear 49 9.6 21 -6.3 32 32 SSW 12 19 30.06 1018 10 16.0934 N/A
4:55 am 04:55 Mostly Cloudy 49 9.6 21 -6.2 33 33 SSW 12 19 30.06 1018 10 16.0934 N/A
5:15 am 05:15 Cloudy 49 9.6 21 -6.3 32 32 SSW 15 24 30.03 1017 10 16.0934 N/A
5:35 am 05:35 Cloudy 49 9.6 21 -6 33 33 SSW 12 19 30.06 1018 10 16.0934 N/A
5:55 am 05:55 Cloudy with Rain 49 9.6 26 -3.6 40 40 SSW 13 20 30.06 1018 10 16.0934 N/A
6:15 am 06:15 Cloudy with Light Rain 49 9.6 28 -2.5 43 43 SSW 16 26 30.06 1018 10 16.0934 N/A
6:35 am 06:35 Cloudy with Light Snow 47 8.3 32 0.2 57 57 S 14 22 30.06 1018 10 16.0934 N/A
6:55 am 06:55 Cloudy 47 8.2 36 2 65 65 S 10 17 30.06 1018 10 16.0934 N/A
7:15 am 07:15 Cloudy with Light Snow 47 8.1 37 2.7 69 69 S 10 17 30.03 1017 10 16.0934 N/A
7:35 am 07:35 Cloudy with Light Snow 44 6.9 37 2.5 74 74 SSW 12 19 30.03 1017 5 8.0467 N/A
7:55 am 07:55 Cloudy 46 7.7 38 3.3 74 74 S 10 17 30.03 1017 10 16.0934 N/A
8:15 am 08:15 Cloudy 47 8.2 37 2.8 69 69 S 10 17 30.03 1017 10 16.0934 N/A
8:35 am 08:35 Cloudy 47 8.4 36 2.3 66 66 S 13 20 30 1016 10 16.0934 N/A
8:55 am 08:55 Cloudy with Light Snow 49 9.6 38 3.3 65 65 SSW 12 19 30 1016 10 16.0934 N/A
9:15 am 09:15 Cloudy with Light Snow 47 8.3 37 3 70 70 WSW 10 17 30.06 1018 4 6.43736 N/A
9:35 am 09:35 Cloudy with Light Snow 44 6.9 38 3.4 79 79 S 9 15 30.03 1017 2.5 4.02335 N/A
9:55 am 09:55 Cloudy with Light Snow 47 8.2 40 4.3 77 77 S 13 20 30.03 1017 7 11.26538 N/A
10:15 am 10:15 Cloudy with Light Snow 47 8.2 40 4.6 78 78 S 12 19 30.03 1017 3 4.82802 N/A
10:35 am 10:35 Cloudy with Light Snow 47 8.2 41 5.1 81 81 SSW 9 15 30 1016 7 11.26538 N/A
10:55 am 10:55 Cloudy with Light Snow 47 8.2 42 5.5 83 83 SSW 7 11 30 1016 3 4.82802 N/A
11:15 am 11:15 Cloudy with Light Snow 48 8.8 43 6.3 84 84 SSW 9 15 30 1016 2 3.21868 N/A
11:35 am 11:35 Cloudy with Light Snow 49 9.3 45 7 86 86 SSW 12 19 30 1016 2.5 4.02335 N/A
11:55 am 11:55 Cloudy with Snow 49 9.6 46 7.5 87 87 SSW 9 15 30 1016 3 4.82802 N/A
12:15 pm 12:15 Cloudy with Mist and Fog 49 9.6 46 7.7 88 88 SSW 8 13 29.97 1015 4 6.43736 N/A
12:35 pm 12:35 Cloudy with Mist and Fog 49 9.6 46 7.7 88 88 SSW 7 11 29.97 1015 4 6.43736 N/A
12:55 pm 12:55 Cloudy with Mist and Fog 49 9.6 46 7.7 88 88 SSW 8 13 29.97 1015 4 6.43736 N/A
1:15 pm 13:15 Cloudy with Light Snow 49 9.6 46 7.8 89 89 SSW 9 15 29.94 1014 3 4.82802 N/A
1:35 pm 13:35 Cloudy with Drizzle 49 9.6 46 8 90 90 SSW 8 13 29.94 1014 5 8.0467 N/A
1:55 pm 13:55 Cloudy with Drizzle 49 9.7 46 8 89 89 SSW 7 11 29.94 1014 3 4.82802 N/A
2:15 pm 14:15 Cloudy with Mist and Fog 52 11 49 9.2 89 89 SSW 10 17 29.94 1014 5 8.0467 N/A
2:35 pm 14:35 Cloudy 55 12.5 51 10.5 88 88 SW 10 17 29.94 1014 10 16.0934 N/A
2:55 pm 14:55 Cloudy 55 12.5 51 10.5 88 88 SW 9 15 29.94 1014 10 16.0934 N/A
3:15 pm 15:15 Cloudy 55 12.5 51 10.3 87 87 SW 9 15 29.94 1014 10 16.0934 N/A
3:35 pm 15:35 Cloudy with Light Rain 55 12.5 51 10.3 87 87 SW 10 17 29.94 1014 5 8.0467 N/A
3:55 pm 15:55 Cloudy with Drizzle 55 12.5 51 10.3 87 87 SSW 10 17 29.94 1014 5 8.0467 N/A
4:15 pm 16:15 Cloudy with Mist and Fog 55 12.5 51 10.3 87 87 SW 9 15 29.94 1014 5 8.0467 N/A
4:35 pm 16:35 Cloudy with Mist and Fog 55 12.5 51 10.3 87 87 SW 8 13 29.94 1014 5 8.0467 N/A
4:55 pm 16:55 Cloudy with Mist and Fog 55 12.5 51 10.3 87 87 SSW 10 17 29.94 1014 5 8.0467 N/A
5:15 pm 17:15 Cloudy 55 12.5 51 10.5 88 88 SW 9 15 29.94 1014 10 16.0934 N/A
5:35 pm 17:35 Cloudy 55 12.5 51 10.4 87 87 SW 8 13 29.94 1014 10 16.0934 N/A
5:55 pm 17:55 Cloudy 55 12.5 51 10.3 87 87 SSW 10 17 29.94 1014 10 16.0934 N/A
6:15 pm 18:15 Cloudy 55 12.5 50 10.2 86 86 S 10 17 29.94 1014 10 16.0934 N/A
6:35 pm 18:35 Cloudy 55 12.5 50 10.2 86 86 SSW 10 17 29.94 1014 10 16.0934 N/A
6:55 pm 18:55 Cloudy 55 12.9 51 10.8 87 87 SSW 9 15 29.94 1014 10 16.0934 N/A
7:15 pm 19:15 Cloudy 56 13.3 52 11 86 86 SSW 9 15 29.94 1014 10 16.0934 N/A
7:35 pm 19:35 Cloudy 56 13.5 53 11.4 87 87 SSW 7 11 29.94 1014 10 16.0934 N/A
7:55 pm 19:55 Cloudy 56 13.1 52 11 87 87 SSW 9 15 29.94 1014 10 16.0934 N/A
8:15 pm 20:15 Cloudy 56 13.1 52 11 87 87 SSW 8 13 29.94 1014 10 16.0934 N/A
8:35 pm 20:35 Cloudy with Mist and Fog 56 13.1 52 11.1 88 88 S 7 11 29.91 1013 5 8.0467 N/A
8:55 pm 20:55 Cloudy 56 13.1 52 11.3 89 89 SSW 7 11 29.91 1013 7 11.26538 N/A
9:15 pm 21:15 Cloudy 56 13.2 53 11.4 89 89 SSW 7 11 29.91 1013 7 11.26538 N/A
9:35 pm 21:35 Cloudy with Mist and Fog 56 13.3 53 11.5 89 89 SSW 7 11 29.91 1013 5 8.0467 N/A
9:55 pm 21:55 Cloudy with Drizzle 55 12.7 51 10.8 88 88 SW 5 7 29.91 1013 5 8.0467 N/A
10:15 pm 22:15 Cloudy with Heavy Rain 56 13.1 52 11.3 89 89 SSW 7 11 29.91 1013 3 4.82802 N/A
10:35 pm 22:35 Cloudy with Drizzle 56 13.4 53 11.7 90 90 S 5 7 29.88 1012 5 8.0467 N/A
10:55 pm 22:55 Cloudy with Drizzle 56 13.2 53 11.5 90 90 SSW 5 7 29.88 1012 5 8.0467 N/A
11:15 pm 23:15 Cloudy with Drizzle 56 13.1 53 11.5 90 90 S 6 9 29.88 1012 4 6.43736 N/A
11:35 pm 23:35 Cloudy with Drizzle 56 13.3 53 11.6 90 90 S 7 11 29.88 1012 7 11.26538 N/A
11:55 pm 23:55 Cloudy with Drizzle 57 13.8 54 12.1 90 90 S 8 13 29.88 1012 5 8.0467 N/A

Powered by AerisWeather